Regional Weather Roundup
Issued by NWS Northern Indiana

Home | Current Version | Previous Version | Graphics & Text | Print | Product List | Glossary On
Versions: 1 2 3 4 5 6 7 8 9 10 11 12 13 14 15 16 17 18 19 20 21 22 23 24 25 26 27 28 29 30 31 32 33 34 35 36 37 38 39 40 41 42 43 44 45 46 47 48 49 50
000
ASUS43 KIWX 012300
RWRIWX

KIWX WEATHER ROUNDUP
NATIONAL WEATHER SERVICE NORTHERN INDIANA
700 PM EDT WED APR 01 2015

NOTE: "FAIR" INDICATES FEW OR NO CLOUDS BELOW 12,000 FEET WITH NO
SIGNIFICANT WEATHER AND/OR OBSTRUCTIONS TO VISIBILITY.

* THESE STATIONS ARE NOT UNDER NWS QUALITY CONTROL. THEY ALSO MAY NOT
  REPORT WEATHER SUCH AS PRECIPITATION OR FOG.

INZ001>027-020000-
NORTHERN INDIANA

CITY           SKY/WX    TMP DP  RH WIND       PRES   REMARKS
GARY*          MOSUNNY   72  23  16 S12G23    29.92F
SOUTH BEND     MOSUNNY   68  33  27 S17G25    29.95F
ELKHART*       SUNNY     68  30  24 S12       29.97F
GOSHEN         SUNNY     67  36  31 S16       29.97F
ANGOLA*        SUNNY     64  36  34 S12       29.99F
FORT WAYNE     PTSUNNY   65  36  34 S12       30.02F
PERU/GRISSOM   SUNNY     67  36  32 S9        30.00F

$$
INZ028>050-020000-
CENTRAL INDIANA

CITY           SKY/WX    TMP DP  RH WIND       PRES   REMARKS
LAFAYETTE      SUNNY     68  34  28 S13       29.97F
KOKOMO*        SUNNY     64  36  34 S14       30.01F
MUNCIE*        SUNNY     66  33  29 S10       30.03F
INDIANAPOLIS   MOSUNNY   65  33  30 SE13      30.01S

$$
MIZ043>046-050>051-056>058-064>065-071>073-077>080-020000-
SOUTHWEST LOWER MICHIGAN

CITY           SKY/WX    TMP DP  RH WIND       PRES   REMARKS
BATTLE CREEK   MOSUNNY   65  35  33 S13       29.97F
BENTON HARBOR  MOSUNNY   68  36  30 S15G21    29.92F
COLDWATER*     SUNNY     64  32  29 S7        29.98F
HILLSDALE*     SUNNY     65  32  29 S7        29.99F
HOLLAND        MOSUNNY   68  35  29 S13       29.92F
GRAND RAPIDS   MOSUNNY   65  35  33 S13       29.93F
KALAMAZOO      SUNNY     66  35  31 S13       29.96
STURGIS*       SUNNY     64  37  36 S9        29.97F
THREE RIVERS*  FAIR      65  36  33 S9        29.97S

$$
OHZ001>008-015>018-024>025-020000-
NORTHWEST OHIO

CITY           SKY/WX    TMP DP  RH WIND       PRES   REMARKS
DEFIANCE       SUNNY     65  34  31 S9        30.02F
FINDLAY        SUNNY     63  34  33 S10       30.04S
TOLEDO EXPRESS SUNNY     64  31  28 S6        30.02S
TOLEDO METCALF SUNNY     64  32  30 VRB7      30.03F
LIMA           SUNNY     65  32  29 S9        30.05S

$$
AND FOR LAKE MICHIGAN COASTAL AND OPEN LAKE BUOY OBSERVATIONS

STATION/POSITION TEMP    WIND        PRES    VSBY  WAVE
                 AIR SEA DIR/SP/G                  HT/PER
                 (F)     (DEG/KT/KT) (MB)    (MI)  (FT/S)
CALUMET HARBOR    70     180/ 12/ 17 1011.5F
MICHIGAN CITY            160/ 15/ 19   N/A
BURNS HARBOR      69     180/ 16/ 21 1013.9S
SAINT JOSEPH      66     180/  9/ 15 1013.9F

$$
&&


USA.gov is the U.S. government's official web portal to all federal, state and local government web resources and services.